User: anonymous   Login
Location: Unspecified
(0.0000°N, 0.0000°E)
Time: 18:56:02
(UTC+00:00)
Language:

AGILE - Orbit

View from above orbital plane
View from above orbital plane
View from above satellite
View from above satellite

Ground track
Ground track

The orbit data is extracted from the following two-line orbital elements,

1 31135U 07013A   16039.00359428  .00006276  00000-0  18702-3 0  9996
2 31135   2.4687 358.7378 0014238 226.7025 133.1840 15.27252165487808
Epoch (UTC): 08 February 2016 00:05:10
Eccentricity: 0.0014238
inclination: 2.4687°
perigee height: 474 km
apogee height: 494 km
right ascension of ascending node: 358.7378°
argument of perigee: 226.7025°
revolutions per day: 15.27252165
mean anomaly at epoch: 133.1840°
orbit number at epoch: 48780

The dashed part of the orbit path shows where the satellite is in the earth's shadow,  

DLR